This is the latest recevied weather packets stored in our database for station/object N2QKV-13. If no packets are shown the sender has not sent any weather packets the latest 10 day(s).
| Time | Temp. | Humidity | Pressure | Rain* | Wind** | Luminosity | Snow |
|---|---|---|---|---|---|---|---|
| 1777731304 | 14.44° C | 68% | 1012 hPa | 0 mm | - | - | - |
| 1777731004 | 14.44° C | 69% | 1011.9 hPa | 0 mm | - | - | - |
| 1777730703 | 13.89° C | 68% | 1011.9 hPa | 0 mm | - | - | - |
| 1777730403 | 13.89° C | 68% | 1011.9 hPa | 0 mm | - | - | - |
| 1777730104 | 13.89° C | 69% | 1012 hPa | 0 mm | - | - | - |
| 1777729803 | 13.89° C | 69% | 1012 hPa | 0 mm | - | - | - |
| 1777729504 | 13.89° C | 69% | 1012 hPa | 0 mm | - | - | - |
| 1777729204 | 13.89° C | 68% | 1012 hPa | 0 mm | - | - | - |
| 1777728903 | 14.44° C | 67% | 1012.1 hPa | 0 mm | - | - | - |
| 1777728603 | 14.44° C | 68% | 1011.9 hPa | 0 mm | - | - | - |
| 1777728304 | 14.44° C | 67% | 1012.1 hPa | 0 mm | - | - | - |
| 1777728004 | 15° C | 68% | 1012.1 hPa | 0 mm | - | - | - |
| 1777727703 | 15° C | 68% | 1012.1 hPa | 0 mm | - | - | - |
| 1777727404 | 14.44° C | 69% | 1012 hPa | 0 mm | - | - | - |
| 1777727104 | 13.89° C | 69% | 1012 hPa | 0 mm | - | - | - |
| 1777726803 | 13.89° C | 69% | 1012.1 hPa | 0 mm | - | - | - |
| 1777726503 | 13.89° C | 70% | 1012.2 hPa | 0 mm | - | - | - |
| 1777726203 | 13.89° C | 71% | 1012.3 hPa | 0 mm | - | - | - |
| 1777725904 | 13.33° C | 72% | 1012.3 hPa | 0 mm | - | - | - |
| 1777725603 | 13.33° C | 74% | 1012.2 hPa | 0 mm | - | - | - |
| 1777725304 | 13.33° C | 76% | 1012.2 hPa | 0 mm | - | - | - |
| 1777725004 | 12.78° C | 78% | 1012.3 hPa | 0 mm | - | - | - |
| 1777724704 | 12.78° C | 78% | 1012.3 hPa | 0 mm | - | - | - |
| 1777724403 | 12.78° C | 79% | 1012.3 hPa | 0 mm | - | - | - |
| 1777724103 | 12.22° C | 80% | 1012.2 hPa | 0 mm | - | - | - |
* Rain latest hour (hover to see other rain measurements)
** Current wind speed in m/s (hover to see current wind gust speed)